FW1957 Weather Reports


Display with metric or nautical units.
time (UTC)temp
F
wind
direction
speed
MPH
gust
MPH
rain 1hr
in
rain 24hr
in
rain mn
in
humidity
%
barometer
mb
20260905025711 67 263 4.0 6.0 0.00 0.00 0.00 69 1012.8
20260905024716 67 262 3.0 6.0 0.00 0.00 0.00 69 1012.8
20260905024220 67 238 3.0 5.0 0.00 0.00 0.00 69 1012.7
20260905023711 68 250 3.0 5.0 0.00 0.00 0.00 68 1012.6
20260905023214 68 250 3.0 5.0 0.00 0.00 0.00 68 1012.3
20260905022714 68 256 3.0 5.0 0.00 0.00 0.00 68 1012.3
20260905022211 68 252 3.0 5.0 0.00 0.00 0.00 67 1012.4
20260905021717 68 231 3.0 5.0 0.00 0.00 0.00 67 1012.4
20260905021207 68 243 3.0 4.0 0.00 0.00 0.00 67 1012.5
20260905020217 68 270 3.0 4.0 0.00 0.00 0.00 66 1012.3
20260905015718 69 263 3.0 4.0 0.00 0.00 0.00 67 1012.3
20260905015219 69 249 2.0 5.0 0.00 0.00 0.00 66 1012.2
20260905014711 69 268 3.0 5.0 0.00 0.00 0.00 66 1012.3
20260905014218 69 253 3.0 5.0 0.00 0.00 0.00 66 1012.3
20260905013717 69 246 2.0 7.0 0.00 0.00 0.00 66 1012.2
20260905013219 69 272 3.0 7.0 0.00 0.00 0.00 67 1012.1
20260905012206 69 275 4.0 9.0 0.00 0.00 0.00 67 1012.2
20260905011714 69 246 5.0 9.0 0.00 0.00 0.00 66 1012.1
20260905011217 69 225 6.0 9.0 0.00 0.00 0.00 66 1012.2
20260905010204 69 249 5.0 10.0 0.00 0.00 0.00 66 1012.2
20260905005710 69 226 6.0 11.0 0.00 0.00 0.00 66 1012.2
20260905005219 69 227 7.0 11.0 0.00 0.00 0.00 66 1012.1
20260905004207 69 231 6.0 10.0 0.00 0.00 0.00 66 1012.1
20260905003707 69 239 7.0 10.0 0.00 0.00 0.00 66 1012.1
20260905003214 69 254 7.0 10.0 0.00 0.00 0.00 65 1012.0
20260905002210 69 254 6.0 11.0 0.00 0.00 0.00 65 1012.0
20260905001726 69 248 7.0 11.0 0.00 0.00 0.00 65 1011.9
20260905001211 69 256 7.0 11.0 0.00 0.00 0.00 65 1011.9
20260905000717 69 246 6.0 9.0 0.00 0.00 0.00 65 1012.0
20260905000212 69 249 6.0 9.0 0.00 0.00 0.00 64 1012.0
20260904235711 70 261 6.0 9.0 0.00 0.00 0.00 63 1012.0
20260904235215 70 254 5.0 9.0 0.00 0.00 0.00 63 1012.0
20260904234712 70 252 6.0 10.0 0.00 0.00 0.00 63 1012.0
20260904234212 70 236 6.0 10.0 0.00 0.00 0.00 63 1011.9
20260904233718 70 254 6.0 10.0 0.00 0.00 0.00 62 1011.9
20260904233210 70 257 6.0 9.0 0.00 0.00 0.00 63 1011.9
20260904232715 70 257 6.0 9.0 0.00 0.00 0.00 63 1011.9
20260904232244 71 236 6.0 9.0 0.00 0.00 0.00 63 1011.9
20260904231719 71 252 6.0 9.0 0.00 0.00 0.00 63 1011.8
20260904231212 71 244 5.0 9.0 0.00 0.00 0.00 62 1011.8
20260904230719 71 215 5.0 8.0 0.00 0.00 0.00 62 1011.8
20260904230209 71 227 5.0 10.0 0.00 0.00 0.00 62 1011.8
20260904225717 71 236 5.0 10.0 0.00 0.00 0.00 62 1011.8
20260904225206 71 238 7.0 10.0 0.00 0.00 0.00 63 1011.8
20260904224213 70 250 6.0 10.0 0.00 0.00 0.00 63 1011.8
20260904223717 70 234 5.0 8.0 0.00 0.00 0.00 64 1011.8
20260904223209 70 240 5.0 8.0 0.00 0.00 0.00 64 1011.7
20260904222717 70 244 5.0 8.0 0.00 0.00 0.00 64 1011.7
20260904222212 70 240 5.0 5.0 0.00 0.00 0.00 64 1011.7
20260904221708 70 228 3.0 7.0 0.00 0.00 0.00 64 1011.7
20260904221210 71 254 3.0 7.0 0.00 0.00 0.00 64 1011.7
20260904220210 71 259 4.0 7.0 0.00 0.00 0.00 63 1011.7
20260904215717 71 258 3.0 6.0 0.00 0.00 0.00 63 1011.7
20260904215213 71 229 3.0 6.0 0.00 0.00 0.00 63 1011.7
20260904214705 71 273 3.0 6.0 0.00 0.00 0.00 62 1011.6
20260904213715 72 262 3.0 7.0 0.00 0.00 0.00 62 1011.6
20260904213204 72 271 4.0 7.0 0.00 0.00 0.00 62 1011.5
20260904212719 72 248 4.0 7.0 0.00 0.00 0.00 61 1011.5
20260904212204 72 254 4.0 7.0 0.00 0.00 0.00 61 1011.5
20260904211709 73 257 4.0 7.0 0.00 0.00 0.00 60 1011.5
20260904211207 73 246 4.0 7.0 0.00 0.00 0.00 59 1011.4
20260904210219 74 271 4.0 7.0 0.00 0.00 0.00 59 1011.5
20260904205717 74 260 4.0 7.0 0.00 0.00 0.00 58 1011.5
20260904205214 75 251 4.0 5.0 0.00 0.00 0.00 58 1011.4
20260904204213 76 230 2.0 4.0 0.00 0.00 0.00 57 1011.4
20260904201716 77 244 4.0 8.0 0.00 0.00 0.00 55 1011.4
20260904201242 77 240 5.0 8.0 0.00 0.00 0.00 55 1011.4
20260904200716 78 240 3.0 8.0 0.00 0.00 0.00 55 1011.4
20260904195712 78 286 4.0 9.0 0.00 0.00 0.00 54 1011.3
20260904194717 78 206 5.0 10.0 0.00 0.00 0.00 54 1011.2
20260904194211 78 226 5.0 10.0 0.00 0.00 0.00 54 1011.2
20260904193719 78 221 5.0 10.0 0.00 0.00 0.00 54 1011.1
20260904193207 78 201 6.0 10.0 0.00 0.00 0.00 53 1011.1
20260904192714 78 217 6.0 10.0 0.00 0.00 0.00 53 1011.1
20260904192205 79 188 5.0 9.0 0.00 0.00 0.00 53 1011.1
20260904191219 79 191 5.0 10.0 0.00 0.00 0.00 53 1011.1
20260904190213 79 198 5.0 10.0 0.00 0.00 0.00 52 1011.2
20260904185213 80 207 5.0 10.0 0.00 0.00 0.00 52 1011.3
20260904184708 80 199 6.0 10.0 0.00 0.00 0.00 51 1011.3
20260904184207 80 208 7.0 11.0 0.00 0.00 0.00 51 1011.4
20260904183718 80 205 6.0 11.0 0.00 0.00 0.00 51 1011.4
20260904183214 80 218 6.0 10.0 0.00 0.00 0.00 51 1011.4
20260904182212 81 189 5.0 9.0 0.00 0.00 0.00 50 1011.2
20260904181708 81 211 5.0 9.0 0.00 0.00 0.00 50 1011.3
20260904181207 81 209 4.0 9.0 0.00 0.00 0.00 50 1011.3
20260904180707 82 204 4.0 9.0 0.00 0.00 0.00 49 1011.3
20260904180208 82 178 4.0 9.0 0.00 0.00 0.00 49 1011.3
20260904175716 82 198 4.0 9.0 0.00 0.00 0.00 49 1011.2
20260904175214 82 150 4.0 8.0 0.00 0.00 0.00 48 1011.1
20260904174713 83 215 4.0 9.0 0.00 0.00 0.00 48 1011.2
20260904173711 83 241 4.0 9.0 0.00 0.00 0.00 47 1011.2
20260904173207 83 239 4.0 8.0 0.00 0.00 0.00 47 1011.3
20260904172721 84 209 4.0 9.0 0.00 0.00 0.00 46 1011.4
20260904172215 84 183 4.0 9.0 0.00 0.00 0.00 46 1011.3
20260904171715 84 192 4.0 8.0 0.00 0.00 0.00 46 1011.3
20260904170711 85 190 4.0 7.0 0.00 0.00 0.00 44 1011.4
20260904170208 85 201 4.0 7.0 0.00 0.00 0.00 44 1011.4
20260904165706 85 157 4.0 7.0 0.00 0.00 0.00 44 1011.3
20260904165212 85 188 3.0 12.0 0.00 0.00 0.00 44 1011.5
20260904164718 86 163 3.0 12.0 0.00 0.00 0.00 43 1011.4
20260904164217 86 199 4.0 12.0 0.00 0.00 0.00 43 1011.5
20260904163216 86 206 4.0 10.0 0.00 0.00 0.00 41 1011.5
20260904162706 86 180 4.0 10.0 0.00 0.00 0.00 42 1011.5
20260904161215 87 209 4.0 10.0 0.00 0.00 0.00 42 1011.7
20260904160720 87 190 4.0 11.0 0.00 0.00 0.00 41 1011.7
20260904160235 87 201 5.0 11.0 0.00 0.00 0.00 41 1011.8
20260904155708 87 191 5.0 9.0 0.00 0.00 0.00 40 1011.9
20260904155207 87 192 4.0 8.0 0.00 0.00 0.00 42 1011.9
20260904154716 87 166 4.0 8.0 0.00 0.00 0.00 40 1012.0
20260904154208 87 198 4.0 7.0 0.00 0.00 0.00 41 1012.0
20260904153714 87 157 3.0 5.0 0.00 0.00 0.00 41 1012.0
20260904153208 87 183 2.0 5.0 0.00 0.00 0.00 42 1012.1
20260904152718 87 184 2.0 9.0 0.00 0.00 0.00 43 1012.2
20260904152213 87 149 3.0 9.0 0.00 0.00 0.00 41 1012.2
20260904151710 87 151 3.0 9.0 0.00 0.00 0.00 40 1012.2
20260904151217 88 206 4.0 8.0 0.00 0.00 0.00 41 1012.3
20260904150707 88 159 3.0 7.0 0.00 0.00 0.00 41 1012.4
20260904150215 88 167 3.0 11.0 0.00 0.00 0.00 40 1012.5
20260904145717 88 192 3.0 11.0 0.00 0.00 0.00 41 1012.5
20260904145217 88 209 5.0 12.0 0.00 0.00 0.00 40 1012.6
20260904144705 88 224 6.0 12.0 0.00 0.00 0.00 40 1012.7
20260904144211 89 175 5.0 12.0 0.00 0.00 0.00 40 1012.8
20260904143210 89 168 3.0 11.0 0.00 0.00 0.00 40 1012.9
20260904142727 89 163 3.0 14.0 0.00 0.00 0.00 40 1013.0
20260904142222 89 207 5.0 14.0 0.00 0.00 0.00 40 1013.1
20260904141712 89 150 6.0 14.0 0.00 0.00 0.00 40 1013.3
20260904141206 89 207 6.0 14.0 0.00 0.00 0.00 40 1013.4
20260904140730 89 166 5.0 13.0 0.00 0.00 0.00 40 1013.3
20260904140210 89 160 4.0 9.0 0.00 0.00 0.00 40 1013.4
20260904135713 88 122 4.0 9.0 0.00 0.00 0.00 41 1013.5
20260904135212 88 117 4.0 10.0 0.00 0.00 0.00 40 1013.5
20260904134707 87 82 4.0 12.0 0.00 0.00 0.00 42 1013.6
20260904134220 87 152 5.0 12.0 0.00 0.00 0.00 41 1013.6
20260904133711 87 150 6.0 12.0 0.00 0.00 0.00 41 1013.7
20260904132706 88 159 5.0 9.0 0.00 0.00 0.00 41 1013.7
20260904132215 87 162 4.0 11.0 0.00 0.00 0.00 42 1013.9
20260904131214 87 177 5.0 11.0 0.00 0.00 0.00 40 1014.1
20260904130709 87 161 5.0 11.0 0.00 0.00 0.00 41 1014.1
20260904130235 87 227 5.0 11.0 0.00 0.00 0.00 40 1014.2
20260904124712 87 175 4.0 11.0 0.00 0.00 0.00 41 1014.4
20260904123718 87 153 5.0 12.0 0.00 0.00 0.00 42 1014.6
20260904123214 87 140 6.0 12.0 0.00 0.00 0.00 41 1014.6
20260904122734 87 149 6.0 10.0 0.00 0.00 0.00 41 1014.6
20260904122207 86 194 3.0 7.0 0.00 0.00 0.00 42 1014.7
20260904121214 86 184 3.0 7.0 0.00 0.00 0.00 43 1014.9
20260904120719 86 213 4.0 7.0 0.00 0.00 0.00 41 1015.0
20260904115713 86 193 3.0 6.0 0.00 0.00 0.00 41 1015.2
20260904114213 87 224 4.0 12.0 0.00 0.00 0.00 42 1015.4
20260904113718 87 217 4.0 11.0 0.00 0.00 0.00 39 1015.5
20260904113209 87 187 4.0 11.0 0.00 0.00 0.00 40 1015.6
20260904112711 87 277 5.0 13.0 0.00 0.00 0.00 41 1015.6
20260904112219 87 250 6.0 20.0 0.00 0.00 0.00 40 1015.7
20260904111710 86 263 9.0 20.0 0.00 0.00 0.00 40 1015.8
20260904111219 86 294 11.0 20.0 0.00 0.00 0.00 40 1015.9
20260904110718 86 339 10.0 18.0 0.00 0.00 0.00 40 1016.1
20260904110218 86 289 8.0 14.0 0.00 0.00 0.00 42 1016.2
20260904105716 85 313 7.0 14.0 0.00 0.00 0.00 42 1016.2
20260904105210 85 294 7.0 15.0 0.00 0.00 0.00 42 1016.3
20260904104713 85 296 8.0 16.0 0.00 0.00 0.00 42 1016.4
20260904104215 85 252 9.0 16.0 0.00 0.00 0.00 43 1016.4
20260904103216 86 306 8.0 19.0 0.00 0.00 0.00 41 1016.5
20260904102719 85 315 9.0 19.0 0.00 0.00 0.00 43 1016.6
20260904102217 85 252 9.0 19.0 0.00 0.00 0.00 43 1016.6
20260904101719 85 254 6.0 11.0 0.00 0.00 0.00 42 1016.8
20260904101218 85 313 5.0 12.0 0.00 0.00 0.00 42 1016.8
20260904100719 84 329 5.0 12.0 0.00 0.00 0.00 42 1016.8
20260904095707 84 297 6.0 16.0 0.00 0.00 0.00 43 1016.8
20260904095216 83 351 8.0 17.0 0.00 0.00 0.00 44 1016.9
20260904094717 83 321 10.0 17.0 0.00 0.00 0.00 43 1016.9
20260904094208 83 343 10.0 17.0 0.00 0.00 0.00 43 1017.0
20260904093737 83 355 11.0 18.0 0.00 0.00 0.00 45 1017.0
20260904092712 83 316 7.0 17.0 0.00 0.00 0.00 45 1017.1
20260904092211 83 337 8.0 19.0 0.00 0.00 0.00 45 1017.2
20260904091713 82 355 10.0 21.0 0.00 0.00 0.00 45 1017.2
20260904091206 82 292 11.0 21.0 0.00 0.00 0.00 45 1017.3
20260904090712 82 313 10.0 21.0 0.00 0.00 0.00 45 1017.3
20260904090207 81 327 10.0 17.0 0.00 0.00 0.00 46 1017.4
20260904085712 81 315 11.0 17.0 0.00 0.00 0.00 46 1017.4
20260904084718 81 294 9.0 20.0 0.00 0.00 0.00 47 1017.7
20260904084218 80 281 11.0 25.0 0.00 0.00 0.00 47 1017.7
20260904083714 80 261 13.0 25.0 0.00 0.00 0.00 47 1017.7
20260904083217 81 271 12.0 25.0 0.00 0.00 0.00 46 1017.7
20260904082717 81 304 10.0 20.0 0.00 0.00 0.00 47 1017.8
20260904082222 80 295 8.0 16.0 0.00 0.00 0.00 48 1017.9
20260904081837 80 342 8.0 16.0 0.00 0.00 0.00 49 1017.9
20260904081213 80 264 9.0 16.0 0.00 0.00 0.00 50 1017.9
20260904080710 79 281 8.0 16.0 0.00 0.00 0.00 50 1017.9
20260904080211 79 226 8.0 16.0 0.00 0.00 0.00 51 1018.1
20260904075707 78 309 7.0 16.0 0.00 0.00 0.00 51 1018.0
20260904075215 78 313 6.0 14.0 0.00 0.00 0.00 53 1018.1
20260904074715 77 281 5.0 11.0 0.00 0.00 0.00 54 1018.2
20260904074218 76 265 4.0 11.0 0.00 0.00 0.00 57 1018.3
20260904073719 76 272 5.0 11.0 0.00 0.00 0.00 56 1018.2
20260904073209 75 320 5.0 11.0 0.00 0.00 0.00 56 1018.2
20260904072705 75 315 5.0 11.0 0.00 0.00 0.00 57 1018.2
20260904072209 75 284 6.0 10.0 0.00 0.00 0.00 57 1018.2
20260904071712 74 267 5.0 11.0 0.00 0.00 0.00 58 1018.2
20260904071211 74 9 6.0 11.0 0.00 0.00 0.00 58 1018.2
20260904065707 73 287 6.0 17.0 0.00 0.00 0.00 59 1018.3
20260904065217 73 325 6.0 12.0 0.00 0.00 0.00 61 1018.3
20260904064708 73 253 8.0 13.0 0.00 0.00 0.00 61 1018.3
20260904064211 73 254 9.0 14.0 0.00 0.00 0.00 61 1018.3
20260904063716 72 242 9.0 14.0 0.00 0.00 0.00 62 1018.3
20260904063208 72 261 9.0 14.0 0.00 0.00 0.00 63 1018.3
20260904062717 71 241 7.0 14.0 0.00 0.00 0.00 64 1018.3
20260904061710 70 246 5.0 9.0 0.00 0.00 0.00 67 1018.2
20260904061215 70 236 5.0 9.0 0.00 0.00 0.00 68 1018.2
20260904060737 69 257 4.0 8.0 0.00 0.00 0.00 69 1018.1
20260904060218 69 272 4.0 8.0 0.00 0.00 0.00 71 1018.1
20260904054706 68 251 3.0 7.0 0.00 0.00 0.00 74 1018.1
20260904054224 68 239 4.0 7.0 0.00 0.00 0.00 74 1018.1
20260904053715 68 252 4.0 7.0 0.00 0.00 0.00 75 1018.1
20260904052712 68 236 4.0 6.0 0.00 0.00 0.00 76 1018.0
20260904052211 68 250 3.0 5.0 0.00 0.00 0.00 76 1018.0
20260904051712 68 254 2.0 5.0 0.00 0.00 0.00 76 1018.0
20260904051207 68 259 2.0 5.0 0.00 0.00 0.00 75 1018.0
20260904050712 67 236 2.0 4.0 0.00 0.00 0.00 75 1018.0
20260904050225 67 260 2.0 4.0 0.00 0.00 0.00 74 1018.1
20260904045719 67 243 2.0 4.0 0.00 0.00 0.00 73 1018.1
20260904044716 68 208 1.0 3.0 0.00 0.00 0.00 73 1018.0
20260904043720 68 208 1.0 3.0 0.00 0.00 0.00 72 1017.9
20260904043219 68 208 1.0 3.0 0.00 0.00 0.00 71 1018.0
20260904042718 68 207 1.0 3.0 0.00 0.00 0.00 71 1017.9
20260904042210 68 209 1.0 3.0 0.00 0.00 0.00 71 1017.9
20260904041710 68 209 1.0 3.0 0.00 0.00 0.00 71 1017.9
20260904041207 68 209 1.0 2.0 0.00 0.00 0.00 70 1018.0
20260904040718 68 188 0.0 2.0 0.00 0.00 0.00 70 1018.0
20260904040206 68 188 1.0 2.0 0.00 0.00 0.00 69 1018.0
20260904035711 68 217 1.0 3.0 0.00 0.00 0.00 69 1018.0
20260904035215 68 217 1.0 3.0 0.00 0.00 0.00 69 1018.0
20260904034712 68 239 1.0 4.0 0.00 0.00 0.00 69 1018.0
20260904034213 68 247 2.0 4.0 0.00 0.00 0.00 69 1018.0
20260904033714 68 267 2.0 6.0 0.00 0.00 0.00 69 1018.0
20260904032211 68 261 3.0 4.0 0.00 0.00 0.00 70 1017.7
20260904031705 68 255 2.0 5.0 0.00 0.00 0.00 70 1017.7
20260904031216 67 254 2.0 6.0 0.00 0.00 0.00 70 1017.8
20260904030718 67 259 3.0 7.0 0.00 0.00 0.00 70 1017.8
20260904030212 67 252 4.0 7.0 0.00 0.00 0.00 71 1017.9